Location: 3 Angels Observatory
(30.5437°N, 88.5068°W)
Time: 22:39:23
(UTC-05:00)

Daily predictions for brighter satellites

Satellite Brightness Start Highest point End
(mag) Time Altitude Azimuth Time Altitude Azimuth Time Altitude Azimuth
Cosmos 1634 Rocket 4.1 19:49:31 10° S 19:55:40 59° E 20:01:51 10° NNE
Cosmos 1869 Rocket 3.6 19:52:34 10° N 19:57:02 69° E 20:01:27 10° SSE
Spot 2 Rocket 4.1 19:55:41 10° SE 20:00:23 39° ENE 20:05:06 10° N
Intelsat 5-1 Rocket 3.3 19:57:40 10° SW 20:00:32 17° S 20:02:31 10° SE
Cosmos 1892 3.1 19:56:57 10° NNW 20:00:43 67° W 20:04:31 10° S
Cosmos 2263 Rocket 3.6 19:56:45 10° NNE 20:00:52 21° ENE 20:05:00 10° ESE
Cosmos 1092 Rocket 4.1 19:55:19 10° N 20:01:38 65° E 20:07:54 10° SSE
USA 186 3.3 20:02:56 10° ESE 20:04:46 16° ENE 20:06:41 10° NNE
Resurs 1-3 4.1 20:02:15 10° SE 20:06:20 40° ENE 20:10:26 10° N
Cosmos 2322 Rocket 2.4 20:01:30 10° SSW 20:07:06 79° WNW 20:12:44 10° NNE
Atlas Centaur 2 2.6 20:05:08 10° WSW 20:11:08 80° S 20:18:45 10° E
Cosmos 1354 Rocket 4.4 20:06:45 10° N 20:11:48 46° ENE 20:16:48 10° SE
Cosmos 2360 Rocket 2.6 20:09:38 10° S 20:14:52 41° ESE 20:20:08 10° NE
H-2A R/B 2.7 20:11:10 10° SSE 20:15:04 78° ENE 20:18:56 10° N
Cosmos 220 Rocket 4.2 20:12:17 10° N 20:16:41 57° ENE 20:21:01 10° SSE
COSMOS 2428 4.1 20:13:47 10° SE 20:17:16 17° E 20:20:45 10° ENE
Intercosmos 25 Rocket 3.1 20:15:41 10° S 20:18:43 52° E 20:22:19 10° NNE
Cosmos 1825 2.6 20:16:27 10° N 20:20:04 40° E 20:23:26 11° SSE
Envisat 4.1 20:17:09 13° ESE 20:20:39 26° ENE 20:24:50 10° NNE
Chunghua 1 4.4 20:18:20 10° WSW 20:22:02 75° SSE 20:25:30 12° ENE
Cosmos 1869 3.9 20:18:17 10° SSW 20:22:09 58° W 20:26:03 10° N
Cosmos 1655 Rocket 4.4 20:17:51 10° N 20:23:54 44° E 20:29:52 10° SSE
Cosmos 2242 Rocket 3.6 20:19:52 10° S 20:24:23 86° E 20:28:52 10° N
Meteor 1-29 3.8 20:23:00 10° NE 20:26:04 29° E 20:28:29 14° SSE
Lacrosse 4 Rocket 1.5 20:23:33 10° NNW 20:27:54 65° ENE 20:31:26 16° SE
Milstar 3 3.1 20:19:18 10° W 20:28:39 71° S 20:33:52 18° ESE
Cosmos 1408 2.6 20:25:08 10° N 20:28:45 56° E 20:31:53 13° SSE
DELTA 2 R/B (1) 4.5 20:24:19 10° WNW 20:29:34 41° SW 20:34:07 13° SSE
Helios 1B rocket 2.6 20:25:57 10° NNE 20:29:55 49° E 20:33:54 10° S
ATLAS 5 CENTAUR R/B 3.6 20:26:50 10° N 20:32:02 28° NE 20:35:40 17° E
Cosmos 2279 Rocket 4.0 20:25:52 10° S 20:32:03 68° E 20:38:14 10° NNE
Cosmos 2322 3.8 20:27:01 10° S 20:32:32 51° ESE 20:38:02 10° NNE
SEDSat Delta rocket 3.5 20:28:37 10° W 20:33:32 80° N 20:37:59 17° E
Cosmos 2195 Rocket 4.4 20:29:11 10° N 20:35:20 82° E 20:41:30 10° S
ERBS 3.3 20:34:31 10° NW 20:37:48 42° WSW 20:40:15 16° S
SL-16 R/B 3.6 20:32:33 10° SW 20:37:52 41° WNW 20:43:13 10° N
Cosmos 1627 Rocket 4.4 20:33:05 10° N 20:39:16 86° E 20:45:23 10° S
ERS-1 Rocket 4.4 20:42:02 18° E 20:43:06 19° ENE 20:46:37 10° NNE
CZ-2D R/B 3.6 20:39:55 10° S 20:43:46 67° W 20:47:38 10° NNW
CZ-3 Stage 3 4.3 20:11:04 10° WNW 20:44:36 43° SW 20:50:35 14° SSE
Sakura Rocket 2.8 20:41:06 10° WSW 20:44:40 58° S 20:46:24 30° ESE
Resurs 01 Rocket 2.4 20:42:54 10° S 20:47:13 52° W 20:51:34 10° NNW
Centaur AC-42 3.7 20:19:58 10° W 20:49:44 47° SSW 20:53:32 23° SE
Cosmos 1428 Rocket 4.4 20:44:51 10° N 20:50:55 63° E 20:55:34 18° SSE
NOSS 3-1 (C) 3.9 20:54:39 29° ESE 20:55:12 29° ESE 21:00:16 10° NE
Cosmos 2333 Rocket 4.3 21:00:04 10° ENE 21:00:04 10° ENE 21:00:08 10° ENE
YAOGAN 6 4.1 20:58:12 23° ENE 20:58:12 23° ENE 21:00:30 10° NNE
USA 229 DEB 3.7 20:54:12 10° SSW 21:01:01 86° WNW 21:07:56 10° NNE
USA 229 3.7 20:54:19 10° SSW 21:01:07 87° WNW 21:08:03 10° NNE
Cosmos 1908 Rocket 4.0 20:58:46 10° NNE 21:02:49 38° E 21:02:59 38° E
Cosmos 1933 4.0 20:59:12 10° SSW 21:03:08 54° W 21:07:05 10° N
OAO 3 Rocket 3.4 21:00:58 10° WNW 21:05:49 66° NNE 21:07:40 37° E
Sich 1 Rocket 3.8 21:04:57 10° N 21:09:18 47° E 21:09:37 46° E
Meteor 2-10 Rocket 3.8 21:05:46 10° S 21:11:35 85° W 21:17:24 10° N
DASH 3.9 21:11:44 10° W 21:15:20 21° SSW 21:15:32 21° SSW
Helios 1A 3.5 21:15:37 29° SSW 21:17:36 56° W 21:21:46 10° NNW
Cosmos 2219 Rocket 3.3 21:20:01 26° ENE 21:20:01 26° ENE 21:22:58 10° NE
Cosmos 1733 Rocket 4.0 21:15:13 10° NNW 21:19:29 46° W 21:22:17 20° SSW
Okean 1-7 3.7 21:21:00 41° NE 21:21:00 41° NE 21:24:18 10° NNE
Cosmos 1939 Rocket 3.8 21:39:19 41° WSW 21:39:43 43° W 21:43:33 10° NNW
Meteor 2-4 4.5 21:42:46 76° SE 21:43:04 79° E 21:48:38 10° N
OAO 1 Rocket 4.3 21:38:58 10° WSW 21:44:15 89° WSW 21:44:15 89° WSW
Cosmos 1703 Rocket 4.4 21:43:26 40° SW 21:44:30 49° W 21:48:49 10° N
Cosmos 2263 Rocket 3.2 21:39:42 10° NW 21:44:53 41° WSW 21:46:54 30° SSW
Cosmos 968 Rocket 3.6 21:43:36 10° NNW 21:48:47 69° WSW 21:49:07 67° SW
MetOp-B 4.3 21:59:17 66° NNE 21:59:17 66° NNE 22:03:56 10° N
USA 234 3.3 21:59:28 59° ENE 22:00:08 62° NE 22:06:35 10° NW
Atlas Centaur 2 2.7 21:53:53 10° W 22:00:52 88° S 22:02:01 68° ESE
COSMOS 2428 3.5 21:55:33 10° SW 22:01:01 49° WNW 22:06:32 10° N
Meteor 1-10 Rocket 4.4 22:06:13 69° NNE 22:06:13 69° NNE 22:11:20 10° N
H-2A R/B 3.6 22:09:09 26° NNE 22:09:09 26° NNE 22:11:32 10° N
MOS 1-B Rocket 4.1 22:09:36 61° NNE 22:09:36 61° NNE 22:14:22 10° N
NOAA 11 4.4 22:10:51 67° NW 22:10:51 67° NW 22:15:43 10° NNW
Cosmos 1867 4.2 22:06:50 10° NW 22:11:34 49° W 22:11:34 49° W
ATLAS 5 CENTAUR R/B 3.1 22:10:56 10° NW 22:16:54 46° WSW 22:17:14 46° WSW
ARGOS 3.8 22:18:59 51° NNW 22:18:59 51° NNW 22:22:58 10° NNW
SEDSat Delta rocket 4.5 22:14:36 10° W 22:18:07 43° W 22:18:07 43° W
ERS-1 Rocket 4.2 22:22:02 36° W 22:22:02 36° W 22:26:10 10° NNW
SeaSat 1 4.0 22:24:45 29° N 22:24:45 29° N 22:27:20 10° N
Cosmos 2237 Rocket 3.8 22:40:20 27° NNE 22:40:20 27° NNE 22:42:49 10° NNE
Cosmos 2333 Rocket 3.3 22:41:57 41° NNW 22:41:57 41° NNW 22:46:03 10° N
Cosmos 1844 Rocket 3.9 22:41:01 10° NNW 22:44:24 37° NW 22:44:24 37° NW
Cosmos 2278 Rocket 3.8 22:42:45 10° N 22:45:29 27° N 22:45:29 27° N
CZ-4C R/B 3.6 22:51:19 10° NNW 22:57:01 45° NNE 22:57:01 45° NNE
Cosmos 2219 Rocket 4.0 23:01:36 25° WNW 23:01:53 25° WNW 23:06:27 10° N
H-2A R/B 4.3 23:24:00 10° W 23:43:21 42° W 23:43:21 42° W
